Voltar ao catálogo

BREEZE-M DEB

AtivoHEO
NORAD 39330·DEBRIS·🇷🇺 Russia

Lançado Mar 14, 2008 de Baikonur Cosmodrome

Loading…

Próximas Passagens (próximas 24 horas)

TLE

AtualizadoSource: Space-Track

Época: Sep 5, 2026, 14:51 UTC

1 39330U 08011DH  26248.61886167 -.00001026  00000-0 -15417-1 0  9993
2 39330  49.9478  57.8196 6502853  98.7791 342.3804  3.01139819142058

Acompanhe BREEZE-M DEB em tempo real com AllMySat

Download on the App Store